sat.trackr.live / text

‹ back to catalog

STARLINK-2285

NORAD 48019 · 2021-024AU

PAYLOAD ACTIVE UNKNOWN

§ Identity

Operator
Country
US
Launch date
2021-03-24
Launch site
AFETR
Launch vehicle
Mass (kg)
RCS (m²)

Purposes: comms

External: N2YO · Heavens-Above · Gunter

§ Orbital elements

Epoch: 2026-05-24T21:05:15.798048Z

Period
94.01 min
Inclination
53.1600°
Eccentricity
0.0000971
Mean motion
15.31718207 rev/d
Perigee alt
470.0 km
Apogee alt
471.4 km
Semi-major
6,848.8 km
B*
1.3713e-4
RAAN
312.5140°
Arg perigee
82.0230°
Mean anomaly
278.0881°
Rev number
28,659

§ Raw data

STARLINK-22851 48019U 21024AU  26144.87865507  .00003895  00000+0  13713-3 0  99962 48019  53.1600 312.5140 0000971  82.0230 278.0881 15.31718207286596

JSON: /api/v1/satellites/48019 · /tle

For live sub-satellite position, see the globe view (requires WebGL).

§ Visibility from observer

Set your observer location to see the next 7 days of passes ≥ 10°. The values pass through the URL so the page stays shareable.

No JS? Fill the form by hand. The geolocation button needs JavaScript.